Temp
62 62 62 61 61 60 60 60 59 59 59 60 59 59 60 59 58 56 57 69 65 65 65 71 72 71 70 68 68 66 61 55 57 58 63 63 61 63 66 62 62 64 64 64 63
62 62 62 62 61 60 60 59 59 59 59 59 59 59 59 58 54 54 67 66 65 66 71 70 68 68 67 66 66 65 58 59 64 66 64 62 62 62 63 60 59 59 62 62 62
62 62 62 62 61 60 60 59 58 59 59 59 59 59 58 57 58 69 66 66 66 67 73 73 71 70 66 66 64 61 60 63 66 68 68 64 61 64 62 59 62 59 58 60 60
60 61 61 61 61 60 59 58 58 59 59 59 59 59 58 56 57 72 67 66 66 68 72 69 69 65 63 62 64 60 64 65 68 67 62 62 64 61 62 62 64 65 62 61 60
59 59 60 61 61 60 59 58 58 58 58 59 59 59 58 57 61 71 66 66 67 69 70 68 66 65 62 63 63 61 65 66 67 65 63 64 61 60 58 61 65 64 62 61 60
58 58 59 59 60 59 59 58 58 57 58 58 59 58 56 52 72 70 69 68 70 70 69 69 68 69 66 63 63 65 64 64 63 62 63 62 60 61 58 62 61 61 61 62 62
58 58 58 59 59 59 59 58 57 57 57 58 58 57 52 57 70 68 67 71 71 71 69 70 72 69 68 63 67 66 61 62 62 63 62 65 59 60 61 61 59 59 60 61 62
58 57 57 57 57 57 57 57 57 57 57 58 58 55 51 68 67 66 68 70 71 72 73 74 73 69 66 67 64 61 60 56 61 64 61 63 56 58 60 60 60 59 60 61 63
57 57 57 56 57 56 56 56 56 57 57 57 53 53 52 69 66 71 71 71 70 70 71 75 72 64 64 59 57 57 53 54 58 63 62 62 58 59 58 59 59 59 61 62 62
57 57 56 56 56 56 55 56 57 56 57 58 57 51 59 64 69 71 71 73 72 68 67 66 63 60 58 58 49 52 52 54 55 62 61 59 60 57 57 58 59 61 60 62 62
57 57 56 56 56 56 56 57 54 51 52 53 55 55 61 68 70 69 70 70 70 67 60 60 59 54 58 57 58 56 54 54 58 63 60 59 60 58 57 58 58 59 60 61 64
58 56 56 56 56 55 55 53 55 55 47 56 56 57 62 66 60 66 71 66 63 58 59 58 53 59 59 58 56 57 55 55 59 61 59 57 59 60 56 57 60 61 61 63 65
57 57 56 55 55 54 55 55 61 60 46 53 57 56 59 63 58 61 68 64 60 55 56 53 58 59 59 58 55 56 55 54 55 58 59 58 56 56 57 60 62 63 65 66 66
56 56 55 55 52 54 52 59 59 59 41 48 53 57 60 62 57 67 69 67 60 57 55 56 59 58 56 56 58 52 59 57 55 55 50 57 48 54 57 57 59 62 63 64 64
56 56 55 54 52 50 56 58 57 55 31 54 53 67 61 59 62 61 68 66 57 56 57 55 55 55 54 56 59 56 59 57 56 53 52 50 50 56 55 57 59 62 64 65 67
55 55 55 52 53 55 57 59 56 41 30 50 55 53 53 57 61 62 64 67 64 57 57 57 61 60 60 60 59 59 56 54 52 50 44 49 50 53 57 59 61 64 66 65 67
55 55 54 56 50 56 59 55 40 33 51 49 50 54 52 52 56 57 55 55 54 48 48 55 56 61 61 58 59 57 53 44 41 41 41 49 47 54 60 62 64 65 66 66 67
54 54 54 55 58 56 56 44 32 42 43 54 53 52 49 53 54 55 53 52 55 55 49 48 46 56 60 59 56 54 54 44 37 38 43 48 45 57 62 64 63 63 63 64 65
54 50 49 52 54 55 48 36 38 43 50 50 53 47 47 52 53 53 52 54 55 56 51 45 48 57 59 60 61 53 50 54 42 39 39 46 52 61 61 62 63 63 63 64 64
48 46 47 53 55 50 42 40 44 51 53 53 46 50 44 48 49 51 48 54 54 57 60 53 47 53 57 60 58 57 57 47 46 37 35 43 45 51 58 60 61 63 63 64 62
46 41 50 54 53 45 37 42 47 54 55 50 47 47 49 47 50 47 49 55 58 55 59 54 53 50 55 54 54 52 51 48 50 45 40 37 46 56 59 61 61 62 63 63 63
43 34 47 53 39 41 39 46 49 52 55 52 52 50 49 49 47 48 49 55 58 57 54 56 50 43 51 56 58 56 54 52 44 42 40 39 44 59 59 59 58 61 63 64 64
39 40 48 50 33 37 45 46 50 49 51 50 49 52 53 50 46 49 50 56 54 56 54 54 47 42 46 52 54 53 53 51 48 44 41 38 46 59 59 61 61 62 64 63 63
39 33 40 43 47 42 41 42 43 52 50 52 50 51 51 50 51 49 50 55 54 57 51 56 48 47 44 49 52 47 49 51 51 42 44 44 50 58 61 59 63 61 61 62 62
39 36 42 34 37 40 44 44 43 43 50 51 48 48 48 46 47 47 52 53 54 51 54 56 48 48 50 51 51 52 51 49 49 51 46 51 47 56 59 60 58 56 58 57 57
36 36 40 41 42 39 42 41 43 46 47 46 46 48 50 46 48 45 50 52 51 52 51 53 47 46 46 48 50 48 51 50 50 50 50 50 49 58 58 57 55 53 55 54 53
43 42 44 42 40 37 39 43 44 48 49 51 50 48 46 50 53 55 55 55 55 54 49 48 44 42 41 45 46 39 47 49 50 52 53 46 55 55 54 53 52 52 52 50 49
MSLP
1020.51 1020.41 1020.47 1020.56 1020.34 1020.27 1020.15 1019.82 1019.60 1019.39 1019.09 1018.73 1018.28 1017.77 1017.21 1016.82 1016.30 1015.91 1015.04 1013.01 1013.06 1012.89 1013.17 1013.35 1013.40 1013.49 1013.67 1013.85 1013.92 1014.04 1013.86 1013.21 1012.76 1012.27 1011.77 1012.01 1012.39 1012.76 1013.01 1013.20 1013.48 1013.76 1013.89 1014.44 1015.24
1020.27 1020.20 1020.04 1020.24 1020.30 1020.09 1019.91 1019.76 1019.59 1019.24 1018.95 1018.58 1018.14 1017.56 1017.01 1016.70 1016.19 1014.82 1012.76 1012.52 1012.71 1012.91 1013.04 1013.00 1013.19 1013.37 1013.51 1013.64 1013.73 1013.54 1013.57 1012.59 1012.04 1011.60 1011.43 1011.95 1012.18 1012.47 1012.88 1013.38 1013.78 1014.12 1014.39 1014.86 1015.39
1019.96 1020.00 1019.89 1019.77 1020.05 1020.09 1019.70 1019.55 1019.45 1019.16 1018.76 1018.51 1018.07 1017.49 1016.81 1016.65 1015.74 1013.03 1012.36 1012.24 1012.65 1012.79 1012.76 1012.66 1012.72 1012.90 1013.03 1013.14 1013.32 1013.31 1012.68 1012.07 1011.52 1011.29 1011.34 1011.63 1012.16 1012.48 1012.80 1013.16 1013.40 1013.84 1014.50 1015.02 1015.52
1019.85 1019.79 1019.55 1019.67 1019.61 1019.71 1019.64 1019.47 1019.25 1019.04 1018.67 1018.38 1018.05 1017.44 1016.69 1016.55 1014.88 1012.35 1012.09 1011.92 1012.39 1012.72 1012.71 1012.70 1012.76 1012.76 1012.63 1012.75 1012.83 1012.91 1012.05 1011.80 1011.21 1011.27 1011.68 1011.68 1012.04 1012.56 1013.09 1013.16 1013.37 1013.65 1014.55 1015.06 1015.74
1019.84 1019.56 1019.67 1019.36 1019.32 1019.27 1019.37 1019.25 1019.13 1018.81 1018.57 1018.38 1017.96 1017.54 1016.75 1015.92 1013.64 1012.17 1012.14 1012.01 1012.43 1012.73 1012.54 1012.52 1012.62 1012.47 1012.38 1012.50 1012.61 1012.52 1011.69 1011.48 1011.31 1011.32 1011.61 1011.84 1012.29 1012.63 1013.25 1013.70 1013.58 1014.01 1014.91 1015.46 1016.03
1019.59 1019.52 1019.27 1019.23 1019.04 1018.99 1018.92 1019.05 1018.84 1018.58 1018.32 1018.31 1017.96 1017.67 1017.24 1015.20 1012.02 1012.20 1012.35 1012.33 1012.25 1012.41 1012.44 1012.34 1012.38 1012.18 1012.10 1012.20 1012.13 1011.70 1011.50 1011.46 1011.43 1011.62 1011.81 1012.09 1012.74 1013.00 1013.91 1014.20 1014.39 1014.55 1015.11 1015.72 1016.10
1019.37 1019.29 1019.14 1018.76 1018.59 1018.77 1018.57 1018.57 1018.53 1018.22 1018.07 1018.03 1017.86 1017.84 1017.07 1013.55 1011.84 1012.21 1012.37 1012.13 1012.11 1012.07 1012.12 1012.04 1012.07 1012.07 1012.07 1011.94 1011.85 1011.55 1011.45 1011.40 1011.55 1011.75 1011.96 1011.89 1012.62 1012.97 1013.66 1014.28 1014.74 1014.91 1015.41 1015.61 1015.99
1019.18 1019.05 1018.91 1018.82 1018.29 1018.29 1018.30 1018.24 1018.09 1017.81 1017.68 1017.71 1017.71 1017.79 1015.51 1011.98 1011.92 1011.92 1012.04 1011.94 1011.92 1011.93 1011.87 1011.76 1011.92 1011.97 1012.00 1012.03 1011.90 1011.54 1011.53 1011.40 1011.51 1011.50 1011.88 1012.21 1012.13 1013.08 1013.80 1014.21 1014.53 1014.91 1015.20 1015.37 1015.58
1018.93 1018.86 1018.74 1018.48 1018.22 1017.84 1018.01 1017.88 1017.53 1017.47 1017.22 1017.59 1017.78 1017.31 1014.09 1011.63 1011.52 1010.77 1011.10 1011.35 1011.50 1011.78 1011.74 1011.80 1011.90 1012.14 1012.17 1012.10 1012.18 1011.76 1011.34 1011.13 1011.06 1011.31 1011.51 1012.04 1012.04 1012.79 1013.86 1014.02 1014.26 1014.74 1014.72 1015.09 1015.71
1018.50 1018.56 1018.44 1018.09 1018.11 1017.63 1017.67 1017.44 1017.03 1017.40 1017.25 1017.45 1017.37 1017.06 1013.01 1011.32 1010.69 1010.56 1010.72 1010.86 1011.02 1011.56 1011.76 1012.05 1012.21 1012.26 1012.40 1012.11 1011.83 1011.62 1011.53 1011.20 1010.83 1011.04 1011.30 1011.56 1011.82 1012.67 1013.51 1013.90 1013.95 1014.25 1014.47 1014.56 1015.06
1018.20 1018.27 1018.00 1018.06 1017.71 1017.63 1017.53 1017.31 1017.30 1017.43 1016.84 1015.42 1014.86 1013.70 1011.99 1011.01 1010.59 1010.37 1010.39 1010.66 1010.82 1011.26 1011.82 1012.14 1012.20 1012.04 1011.80 1011.97 1011.58 1011.58 1011.55 1011.19 1010.86 1010.80 1011.06 1011.10 1011.51 1012.05 1012.98 1013.64 1013.63 1013.67 1014.01 1014.07 1014.01
1017.84 1018.12 1017.86 1017.75 1017.51 1017.56 1017.42 1017.40 1016.93 1017.12 1015.94 1013.93 1013.36 1012.87 1011.86 1011.40 1011.14 1010.24 1010.09 1010.51 1010.90 1011.40 1011.92 1012.37 1011.93 1011.53 1011.66 1011.85 1011.76 1011.32 1011.27 1011.11 1010.94 1010.92 1011.13 1011.03 1010.90 1011.54 1012.22 1012.15 1012.45 1012.65 1013.01 1013.22 1013.58
1017.23 1017.80 1017.76 1017.60 1017.31 1017.58 1017.11 1016.73 1016.60 1016.62 1016.02 1012.75 1011.72 1011.17 1010.79 1011.02 1010.65 1009.94 1009.90 1010.00 1010.59 1011.40 1011.75 1011.92 1011.49 1011.24 1011.49 1011.60 1011.51 1011.08 1010.89 1011.19 1011.16 1011.05 1011.08 1010.75 1010.76 1011.06 1011.92 1012.28 1012.59 1012.43 1012.44 1012.79 1012.91
1016.77 1017.18 1017.57 1017.62 1017.56 1016.92 1016.80 1016.29 1016.34 1016.46 1015.71 1011.89 1010.66 1009.43 1009.69 1009.80 1009.73 1009.02 1009.14 1009.41 1010.37 1010.79 1011.76 1011.77 1011.23 1011.20 1011.29 1011.07 1011.08 1010.90 1010.56 1010.79 1010.82 1011.05 1011.15 1011.21 1011.09 1010.77 1010.92 1011.37 1011.65 1011.64 1011.87 1011.95 1012.41
1016.09 1016.54 1017.15 1017.56 1017.04 1016.59 1016.40 1015.97 1016.16 1016.42 1014.51 1010.12 1009.54 1008.95 1008.83 1009.04 1008.18 1008.43 1008.52 1008.89 1009.67 1010.49 1011.35 1011.10 1010.99 1010.97 1010.99 1010.67 1010.61 1010.76 1010.74 1010.82 1011.11 1011.38 1011.49 1011.62 1011.44 1010.38 1010.48 1010.22 1010.05 1010.17 1010.42 1010.72 1011.03
1015.50 1015.91 1016.60 1017.09 1017.00 1016.07 1016.00 1015.74 1016.15 1016.09 1012.54 1009.47 1008.87 1008.84 1009.04 1008.80 1008.11 1008.24 1008.50 1008.56 1009.37 1010.30 1010.78 1010.81 1010.70 1010.64 1010.28 1010.32 1010.47 1010.52 1011.01 1011.35 1011.75 1011.87 1011.91 1011.32 1011.10 1010.08 1009.68 1009.24 1009.06 1009.06 1009.52 1009.78 1010.08
1014.89 1015.32 1015.93 1016.32 1016.02 1015.54 1015.77 1015.86 1015.93 1014.11 1010.69 1009.17 1008.66 1008.48 1008.56 1008.53 1008.18 1008.02 1008.33 1008.72 1009.14 1010.08 1010.57 1010.73 1010.58 1010.30 1010.09 1010.31 1010.46 1010.84 1011.10 1011.69 1012.10 1012.22 1012.00 1011.65 1011.18 1009.49 1008.95 1008.73 1008.50 1008.40 1008.47 1008.80 1009.26
1014.22 1014.94 1015.12 1015.69 1015.56 1015.61 1015.46 1015.82 1014.28 1012.01 1010.41 1008.83 1008.36 1008.27 1008.44 1008.26 1008.18 1008.08 1008.46 1008.88 1009.09 1009.30 1010.40 1010.55 1010.61 1010.15 1009.79 1009.76 1010.03 1010.52 1010.92 1011.50 1011.98 1012.50 1012.28 1011.79 1010.65 1008.88 1008.56 1008.41 1008.30 1008.27 1008.24 1008.46 1008.72
1013.69 1014.49 1014.82 1015.02 1015.40 1015.64 1015.29 1014.08 1011.43 1010.92 1009.74 1008.95 1008.36 1008.33 1008.48 1008.15 1007.98 1008.04 1008.33 1008.50 1008.70 1008.79 1009.44 1010.29 1010.27 1009.86 1009.77 1009.65 1009.91 1010.52 1011.10 1011.60 1012.33 1013.40 1012.69 1011.57 1010.39 1009.10 1008.45 1008.21 1008.20 1008.04 1007.84 1008.04 1008.56
1013.09 1013.90 1013.88 1014.44 1014.95 1015.43 1014.61 1011.54 1010.63 1009.69 1009.13 1008.77 1008.37 1007.74 1007.95 1008.05 1008.21 1008.01 1008.23 1007.98 1008.32 1008.40 1008.30 1009.47 1010.04 1010.06 1009.84 1009.99 1010.21 1010.29 1010.81 1011.71 1012.23 1012.83 1012.57 1011.69 1010.79 1009.51 1008.68 1008.43 1008.35 1008.23 1008.18 1008.10 1008.40
1012.77 1012.96 1012.09 1013.55 1014.64 1014.21 1011.75 1010.26 1010.18 1009.20 1008.82 1008.83 1008.48 1008.01 1007.73 1007.72 1007.69 1007.87 1007.71 1007.60 1007.55 1008.32 1008.45 1009.23 1009.68 1010.44 1010.16 1009.91 1009.74 1010.73 1011.03 1011.69 1012.19 1012.60 1012.41 1011.87 1010.44 1009.13 1008.71 1008.60 1008.56 1008.54 1008.51 1008.43 1008.28
1011.60 1011.83 1011.72 1012.57 1013.24 1012.00 1010.23 1009.69 1009.63 1009.08 1008.93 1008.73 1008.43 1008.31 1007.77 1007.48 1007.49 1007.54 1007.32 1006.88 1006.74 1007.26 1008.47 1008.93 1009.35 1010.08 1009.78 1009.67 1009.69 1009.71 1010.09 1010.88 1011.85 1012.66 1012.73 1011.98 1010.25 1008.69 1008.58 1008.77 1008.85 1008.44 1008.46 1008.48 1008.39
1010.27 1011.16 1011.56 1011.38 1010.70 1009.93 1009.50 1009.51 1009.31 1009.16 1008.62 1008.69 1008.36 1008.27 1007.83 1007.49 1007.57 1007.15 1006.92 1006.53 1006.73 1007.03 1007.44 1008.52 1009.26 1009.86 1009.98 1010.18 1010.14 1010.07 1010.19 1010.57 1011.23 1011.88 1011.95 1011.51 1009.94 1008.70 1008.57 1008.34 1008.49 1008.48 1008.40 1008.59 1008.68
1009.47 1010.17 1010.38 1011.20 1009.04 1008.69 1008.91 1008.38 1008.62 1008.84 1008.69 1008.41 1008.33 1008.35 1008.16 1007.48 1007.25 1007.02 1006.89 1006.66 1006.78 1006.95 1006.87 1007.39 1008.56 1008.99 1009.22 1009.23 1009.37 1009.80 1009.82 1010.15 1010.45 1011.27 1010.86 1010.32 1009.41 1008.64 1008.32 1008.38 1008.24 1008.61 1008.86 1008.88 1008.92
1007.76 1008.19 1007.41 1007.80 1008.58 1008.00 1007.76 1007.39 1007.86 1008.11 1008.37 1008.51 1008.46 1008.37 1008.13 1007.81 1007.37 1007.25 1007.07 1006.99 1007.31 1007.34 1007.52 1007.60 1008.46 1009.00 1008.86 1008.81 1009.04 1008.90 1009.08 1009.56 1009.76 1009.40 1009.85 1009.05 1008.98 1008.31 1008.34 1008.38 1008.90 1009.39 1009.37 1009.48 1009.69
1006.12 1006.79 1006.75 1006.33 1007.54 1008.43 1007.23 1006.54 1006.74 1007.62 1007.64 1007.77 1008.01 1008.09 1008.08 1007.98 1007.54 1007.61 1007.79 1007.48 1007.60 1008.22 1008.09 1008.11 1008.62 1009.10 1009.49 1009.31 1009.10 1009.10 1008.60 1009.02 1009.28 1009.27 1009.30 1008.98 1008.64 1008.12 1008.47 1009.01 1009.64 1010.02 1010.15 1010.50 1010.98
1004.60 1004.58 1005.09 1005.45 1006.23 1007.26 1005.84 1006.11 1006.56 1007.42 1007.57 1007.42 1007.92 1008.04 1007.97 1007.64 1007.62 1007.45 1007.70 1007.75 1007.86 1008.02 1008.32 1008.76 1009.00 1009.76 1010.22 1009.96 1009.52 1009.21 1008.17 1008.32 1008.51 1008.39 1008.21 1008.42 1007.71 1008.22 1008.91 1009.68 1010.60 1011.10 1011.41 1011.80 1012.11
Wind_Speed
9 8 8 9 8 9 10 9 10 11 14 15 17 17 17 17 16 1 6 6 4 6 9 5 2 3 2 3 2 3 1 2 4 3 4 2 4 2 3 3 1 3 1 9 13
10 9 8 9 9 9 9 9 10 11 13 14 16 17 17 16 4 4 9 4 8 8 5 6 4 5 2 3 2 3 2 6 6 4 5 4 2 4 3 3 1 1 8 11 12
10 10 9 8 9 10 9 9 10 11 12 14 15 16 15 12 5 3 2 10 10 6 2 2 4 3 3 3 5 4 5 3 8 12 4 1 2 4 4 4 5 7 11 9 12
12 12 9 9 8 9 10 10 10 11 12 14 16 17 18 2 2 0 6 8 10 4 3 3 2 3 2 2 3 3 9 8 5 4 5 4 5 5 4 3 5 12 14 11 12
11 10 13 10 9 8 9 10 11 10 11 13 14 15 6 3 10 3 6 11 8 6 5 4 4 4 1 2 4 4 5 5 6 4 3 6 2 4 4 1 9 15 14 12 11
11 11 11 11 10 9 8 10 11 10 9 11 11 12 3 5 2 6 6 2 7 4 3 4 3 3 1 3 4 4 5 5 2 3 3 4 3 1 3 7 10 12 12 8 12
11 11 12 11 10 10 9 10 12 10 10 10 7 2 2 16 4 3 3 3 4 4 3 4 3 2 1 3 2 3 6 2 3 2 2 6 0 2 8 9 10 11 10 12 12
11 10 11 12 10 10 10 10 13 11 11 10 2 1 9 4 1 5 4 4 5 4 2 3 3 2 2 3 4 1 2 3 1 6 3 3 4 4 9 10 10 9 10 10 14
9 10 10 11 10 8 8 10 13 11 3 4 1 2 11 5 4 4 8 5 4 3 2 0 1 1 2 2 2 3 2 2 2 3 4 4 3 6 11 10 9 10 8 8 10
9 9 10 10 11 8 7 10 7 0 3 3 2 2 6 3 2 1 4 4 3 5 4 2 3 1 2 2 4 3 2 2 2 2 3 4 8 7 13 13 12 9 8 9 11
10 9 8 11 10 7 4 4 3 2 3 9 4 5 4 6 2 2 3 6 4 3 4 1 2 6 10 4 2 3 2 2 1 2 4 6 8 8 14 12 13 12 12 12 14
13 8 8 8 10 3 2 1 3 2 10 12 18 13 9 2 5 4 7 6 5 5 3 2 6 7 3 3 3 4 1 2 3 2 4 1 8 4 16 19 18 17 15 16 13
10 8 7 8 4 2 3 5 2 4 4 9 8 7 7 11 9 7 11 5 5 6 6 5 3 4 4 4 6 4 5 4 1 1 2 3 4 1 7 12 14 16 16 15 15
11 9 8 8 1 3 3 2 4 4 4 8 6 7 7 8 6 8 9 6 2 11 8 5 2 6 5 5 6 3 5 5 2 2 2 3 3 4 4 11 13 17 16 18 18
13 11 9 9 1 3 3 3 5 1 4 3 3 3 7 8 7 7 6 3 9 7 6 5 5 4 4 6 6 5 2 2 2 3 1 2 3 3 0 7 16 19 19 19 19
15 13 10 3 3 4 2 2 2 2 10 2 5 6 7 3 2 5 5 4 4 6 1 4 1 3 4 1 4 4 3 5 4 2 1 1 3 3 5 6 3 10 18 19 19
15 14 11 4 4 5 3 1 3 8 5 3 4 5 5 6 3 4 8 7 7 7 5 1 2 2 3 3 2 2 3 0 1 1 3 3 2 8 3 8 8 9 11 17 18
15 14 10 7 2 2 4 3 11 5 7 4 2 4 6 5 3 3 11 11 3 6 5 6 3 7 5 4 5 4 3 4 3 3 1 0 4 3 3 8 7 7 9 8 16
15 6 5 6 7 1 5 10 7 8 4 3 2 4 4 4 5 4 7 14 9 7 7 6 5 1 1 2 2 4 2 1 7 2 0 2 5 8 3 4 3 6 5 4 8
8 7 9 8 8 4 7 19 9 6 0 2 5 5 9 6 5 7 8 5 7 8 5 7 3 1 1 2 4 1 8 3 1 4 3 2 3 4 4 3 4 3 5 7 3
8 7 8 12 8 8 17 15 18 4 3 1 2 2 4 6 7 6 10 2 10 8 4 5 3 1 1 5 8 4 2 3 4 1 3 2 3 6 5 2 4 3 4 5 6
8 10 7 15 14 10 19 17 5 18 1 3 1 4 3 5 6 6 11 7 9 13 11 6 5 5 6 1 1 2 6 6 4 4 0 1 6 3 6 5 6 8 4 4 4
7 5 6 14 16 18 16 22 14 9 12 6 4 2 2 1 4 5 6 4 9 9 12 9 2 3 1 2 2 3 4 4 5 3 7 5 4 3 3 3 4 8 6 4 4
6 7 7 12 14 19 21 21 24 16 5 3 3 1 3 2 3 2 5 3 7 4 5 10 4 6 10 7 5 4 6 7 6 3 5 7 8 9 8 7 7 6 8 9 6
6 5 7 13 22 18 21 18 26 14 19 8 3 7 2 4 2 2 2 3 2 4 4 5 7 6 4 4 5 5 5 12 12 10 9 11 11 10 7 4 4 5 4 7 8
9 7 3 5 23 21 19 21 25 22 12 18 12 9 10 6 2 4 4 1 1 2 2 2 5 5 3 2 6 5 7 7 7 4 9 7 7 11 3 3 2 3 6 8 8
4 2 7 16 19 19 21 21 15 17 16 9 14 3 3 13 3 2 3 5 5 2 5 4 6 5 5 2 5 4 8 9 5 5 6 9 11 6 6 6 5 5 6 7 7
Wind_Direction
276 281 292 299 307 317 319 322 325 322 326 327 326 325 322 321 320 122 247 214 176 241 169 132 104 104 80 108 130 140 72 269 261 237 264 184 202 150 99 135 52 1 137 126 124
269 276 280 293 303 308 313 317 320 322 321 324 324 324 322 327 298 265 252 188 215 144 142 163 152 147 115 121 133 133 192 227 213 240 261 177 182 152 185 139 125 82 106 118 125
272 270 280 286 294 301 309 315 315 319 323 324 324 323 323 327 293 235 316 189 189 169 206 160 129 173 159 162 177 163 233 221 248 244 262 273 176 158 179 226 191 188 157 134 126
314 281 274 278 284 295 304 310 311 316 322 326 326 325 322 299 303 123 335 193 172 166 129 110 131 177 174 197 160 210 247 249 285 233 179 201 135 152 179 313 274 161 162 145 136
309 308 290 277 279 285 297 303 306 312 317 322 328 331 340 350 252 355 69 118 124 152 166 165 176 165 192 214 163 216 266 295 285 239 207 129 127 117 15 9 137 141 157 154 138
304 306 295 283 279 278 288 296 300 305 308 313 326 330 311 286 196 108 99 159 148 154 158 144 228 226 223 227 219 207 266 283 356 8 115 105 116 196 188 171 144 147 168 156 152
301 304 308 294 278 278 285 294 295 299 292 298 312 329 269 244 125 337 297 209 185 167 167 200 210 172 114 276 290 275 301 29 17 100 96 139 351 257 158 186 162 174 172 164 158
295 300 304 304 295 280 286 294 294 291 288 283 227 204 250 237 235 283 176 258 227 227 228 153 176 167 163 323 343 348 56 355 224 161 198 219 276 101 167 190 184 195 188 177 170
288 298 300 303 305 293 291 296 291 297 256 146 158 202 261 316 255 241 170 200 148 156 208 49 125 69 88 82 324 351 211 162 158 178 139 198 257 138 182 190 214 198 199 180 176
272 290 302 309 309 305 315 285 293 137 136 165 265 321 255 237 276 168 183 188 158 129 96 119 66 150 73 157 214 211 232 240 119 201 232 192 243 174 188 197 212 211 201 197 198
265 276 301 309 312 318 332 330 328 233 219 211 204 262 295 294 257 230 171 142 120 91 168 33 175 218 226 229 153 159 202 336 261 173 203 237 265 212 192 207 214 222 210 217 217
264 263 287 307 319 202 196 228 233 209 298 232 247 252 262 59 323 262 143 146 145 176 132 94 238 229 196 178 201 164 99 313 315 8 216 272 293 214 189 209 211 207 218 223 218
236 248 276 306 330 178 221 208 136 21 275 277 207 214 203 174 211 242 164 155 141 147 182 181 200 117 164 197 220 211 169 172 272 256 171 1 293 278 196 221 216 229 226 229 232
218 228 258 294 226 166 232 124 251 175 289 266 224 247 165 154 227 197 185 148 141 189 157 234 234 181 206 225 180 260 184 176 110 31 291 344 302 278 223 215 215 226 224 225 215
212 207 231 215 358 179 158 325 124 195 293 210 179 147 152 193 143 213 173 86 158 160 152 231 178 177 190 220 165 234 169 64 105 169 160 155 210 273 18 244 228 225 223 224 221
210 201 203 242 219 236 289 3 81 201 244 266 142 173 148 238 195 111 145 74 122 118 108 211 213 193 205 161 185 120 92 55 73 95 201 208 210 263 209 228 280 245 226 220 218
209 204 175 209 229 173 208 339 172 227 327 191 188 163 186 180 171 136 161 161 155 138 174 2 213 245 165 149 117 128 116 333 105 129 217 124 196 248 237 245 250 265 241 221 213
199 206 202 198 220 189 153 171 217 210 259 312 153 104 181 158 218 133 146 180 228 117 132 175 241 186 181 191 179 171 190 164 190 182 280 20 237 239 217 284 287 276 280 250 214
180 204 200 193 221 253 195 206 205 187 229 251 126 127 225 223 171 147 178 193 179 168 162 153 241 191 204 147 186 152 180 87 103 25 154 245 276 270 307 322 332 331 328 304 225
188 211 203 168 174 203 218 215 214 198 152 325 227 175 178 191 163 171 174 185 188 189 147 194 154 229 161 166 38 228 144 135 49 170 235 245 274 260 324 348 327 1 330 307 279
175 215 172 159 164 211 213 207 216 240 94 60 311 301 216 176 179 186 186 217 180 174 120 135 128 219 159 204 176 147 172 66 121 151 202 243 242 214 240 275 304 290 269 272 275
180 209 169 153 191 215 215 201 224 236 129 238 233 244 242 187 167 189 195 213 177 144 164 187 149 176 196 136 285 207 175 156 151 193 10 281 262 256 254 272 286 287 272 271 259
183 169 166 171 187 209 201 210 207 221 210 201 219 218 300 287 204 192 189 227 156 149 157 174 187 140 358 46 34 229 193 138 106 93 188 201 246 181 288 290 249 279 304 283 256
161 162 153 202 223 212 191 198 213 209 245 166 191 206 272 307 206 208 203 198 188 186 119 127 139 171 218 219 156 191 199 179 152 161 189 226 256 269 276 281 289 311 325 316 304
149 187 186 184 208 213 196 196 200 193 213 175 186 211 173 228 335 176 38 21 83 170 138 146 184 178 233 232 188 217 184 180 196 214 196 237 213 249 250 247 311 315 353 26 25
162 172 204 176 203 209 205 210 193 197 183 211 214 194 209 248 151 67 21 10 218 55 147 232 179 145 211 150 195 218 229 204 227 211 244 247 250 234 188 154 81 56 88 71 48
168 197 192 200 177 193 211 194 191 185 224 198 203 198 166 237 232 269 212 252 245 181 172 175 136 130 223 170 149 303 211 193 191 207 197 200 227 160 187 150 116 90 85 85 71